World > North America > United States > Georgia

Ringgold, Georgia Regional Weather

Lat: 34.92N, Lon: 85.11W
Wx Zone: GAZ003
Feedback

Ringgold, GA Regional Weather

Expires:201908220600;;017549
ASUS42 KFFC 220510
RWRGA 
WEATHER ROUNDUP FOR GEORGIA
NATIONAL WEATHER SERVICE PEACHTREE CITY GA
100 AM EDT THU AUG 22 2019

NOTE: "FAIR" INDICATES FEW OR NO CLOUDS BELOW 12,000 FEET WITH NO
SIGNIFICANT WEATHER AND/OR OBSTRUCTIONS TO VISIBILITY. 

* = USE WITH CAUTION. THE STATIONS MARKED WITH AN ASTERISK MAY NOT
REPORT WEATHER SUCH AS PRECIPITATION, FOG, OR THUNDER AND ARE NOT 
QUALITY CONTROLLED BY NWS.

THE REMARK "TC" DENOTES TEMPERATURE READING IN DEGREES CELSIUS.


GAZ001>058-220600-
NORTH GEORGIA
  
CITY           SKY/WX    TMP DP  RH WIND       PRES   REMARKS
ATLANTA        FAIR      80  68  66 SW7       30.09S                  
ATHENS         FAIR      76  70  82 CALM      30.09R                  
CHAMBLEE       FAIR      77  68  73 S6        30.09S                  
PEACHTREE CITY FAIR      78  71  79 CALM      30.10R                  
ROME           FAIR      79  70  74 CALM      30.05S                  
WEST ATLANTA   FAIR      80  69  69 S7        30.08S                  
GAINESVILLE    FAIR      77  71  82 W3        30.12S                  
CARTERSVILLE   FAIR      76  70  82 CALM      30.07F                  

  
CITY           SKY/WX    TMP DP  RH WIND       PRES   REMARKS
LAWRENCEVILLE* FAIR      76  71  85 CALM      30.10R                  
MARIETTA       FAIR      79  69  71 SW3       30.08F                  
KENNESAW*      FAIR      79  71  76 SW3       30.09F                  
CANTON*        FAIR      77  72  83 CALM      30.11S                  
BLAIRSVILLE*   FAIR      69  69  98 CALM      30.15S FOG              
$$


SKY/WX - Weather  TMP - Temperature  DP - Dew Point  RH - Relative Humidity
WIND - Wind Direction/Speed PRES - Barometric Pressure VSB - Visibility
WCI - Wind Chill Index E13G22 Wind - East Wind 13 mph/Gusts of 22 mph